TimeEST,TemperatureF,Dew PointF,Humidity,Sea Level PressureIn,VisibilityMPH,Wind Direction,Wind SpeedMPH,Gust SpeedMPH,PrecipitationIn,Events,Conditions,WindDirDegrees,DateUTC
12:54 AM,27.0,17.1,66,30.37,10.0,Calm,Calm,-,N/A,,Clear,0,2013-02-07 05:54:00
1:54 AM,23.0,17.1,78,30.39,10.0,Calm,Calm,-,N/A,,Clear,0,2013-02-07 06:54:00
2:54 AM,23.0,18.0,81,30.42,10.0,Calm,Calm,-,N/A,,Clear,0,2013-02-07 07:54:00
3:54 AM,21.9,19.0,89,30.42,7.0,Calm,Calm,-,N/A,,Clear,0,2013-02-07 08:54:00
4:54 AM,23.0,17.1,78,30.43,10.0,North,3.5,-,N/A,,Clear,360,2013-02-07 09:54:00
5:54 AM,23.0,15.1,72,30.43,10.0,Calm,Calm,-,N/A,,Clear,0,2013-02-07 10:54:00
6:54 AM,23.0,15.1,72,30.47,10.0,Calm,Calm,-,N/A,,Clear,0,2013-02-07 11:54:00
7:54 AM,24.1,16.0,71,30.49,10.0,Calm,Calm,-,N/A,,Clear,0,2013-02-07 12:54:00
8:54 AM,26.1,17.1,69,30.48,10.0,Calm,Calm,-,N/A,,Clear,0,2013-02-07 13:54:00
9:54 AM,28.9,17.1,61,30.49,10.0,Calm,Calm,-,N/A,,Clear,0,2013-02-07 14:54:00
10:54 AM,30.0,14.0,51,30.49,10.0,ESE,3.5,-,N/A,,Clear,110,2013-02-07 15:54:00
11:54 AM,32.0,14.0,48,30.46,10.0,SSE,5.8,-,N/A,,Scattered Clouds,160,2013-02-07 16:54:00
12:54 PM,34.0,15.1,46,30.43,10.0,SSE,5.8,-,N/A,,Partly Cloudy,150,2013-02-07 17:54:00
1:54 PM,34.0,15.1,46,30.41,10.0,ESE,5.8,-,N/A,,Overcast,120,2013-02-07 18:54:00
2:54 PM,35.1,14.0,42,30.39,10.0,SE,6.9,-,N/A,,Overcast,140,2013-02-07 19:54:00
3:54 PM,35.1,12.9,40,30.37,10.0,ESE,5.8,-,N/A,,Overcast,110,2013-02-07 20:54:00
4:54 PM,35.1,12.9,40,30.36,10.0,ESE,6.9,-,N/A,,Overcast,110,2013-02-07 21:54:00
5:54 PM,34.0,14.0,44,30.36,10.0,ESE,5.8,-,N/A,,Overcast,110,2013-02-07 22:54:00
6:54 PM,33.1,16.0,50,30.38,10.0,ESE,6.9,-,N/A,,Overcast,120,2013-02-07 23:54:00
7:54 PM,33.1,19.9,59,30.38,10.0,Variable,6.9,-,N/A,,Overcast,0,2013-02-08 00:54:00
8:54 PM,32.0,19.0,59,30.37,10.0,ESE,8.1,-,N/A,,Overcast,120,2013-02-08 01:54:00
9:54 PM,32.0,18.0,56,30.36,10.0,Calm,Calm,-,N/A,,Overcast,0,2013-02-08 02:54:00
10:41 PM,32.0,19.4,60,30.29,10.0,East,4.6,-,N/A,,Overcast,90,2013-02-08 03:41:00
10:54 PM,32.0,19.0,59,30.31,10.0,East,5.8,-,N/A,,Overcast,90,2013-02-08 03:54:00
11:54 PM,33.1,21.0,61,30.29,10.0,Calm,Calm,-,N/A,,Overcast,0,2013-02-08 04:54:00